Time,TemperatureF,DewpointF,PressureIn,WindDirection,WindDirectionDegrees,WindSpeedMPH,WindSpeedGustMPH,Humidity,HourlyPrecipIn,Conditions,Clouds,dailyrainin,SoftwareType,DateUTC
2013-03-16 06:10:00,43.0,36.0,-100.00,ESE,110,1.0,1.0,76,-99.99,,,-99.99,,2013-03-16 13:10:00,
2013-03-16 07:02:00,43.0,36.0,-100.00,ESE,110,1.0,1.0,76,-99.99,,,-99.99,,2013-03-16 14:02:00,
2013-03-16 08:02:00,42.0,36.0,-100.00,ESE,110,6.0,6.0,79,-99.99,,,-99.99,,2013-03-16 15:02:00,
2013-03-16 08:10:00,42.0,37.0,-100.00,SSE,160,3.0,5.0,82,-99.99,,,-99.99,,2013-03-16 15:10:00,
2013-03-16 09:00:00,43.0,37.0,-100.00,NNE,20,1.0,6.0,79,-99.99,,,-99.99,,2013-03-16 16:00:00,
2013-03-16 09:03:00,42.0,37.0,-100.00,SSE,160,3.0,5.0,82,-99.99,,,-99.99,,2013-03-16 16:03:00,
2013-03-16 10:10:00,45.0,38.0,-100.00,ESE,105,3.0,5.0,76,-99.99,,,-99.99,,2013-03-16 17:10:00,
2013-03-16 11:00:00,47.0,38.0,-100.00,North,5,2.0,5.0,70,-99.99,,,-99.99,,2013-03-16 18:00:00,
2013-03-16 11:02:00,45.0,38.0,-100.00,ESE,105,3.0,5.0,76,-99.99,,,-99.99,,2013-03-16 18:02:00,
2013-03-16 12:10:00,53.0,32.0,-100.00,East,100,6.0,9.0,44,-99.99,,,-99.99,,2013-03-16 19:10:00,
2013-03-16 13:02:00,53.0,32.0,-100.00,East,100,6.0,9.0,44,-99.99,,,-99.99,,2013-03-16 20:02:00,
2013-03-16 14:02:00,57.0,26.0,-100.00,East,80,9.0,17.0,30,-99.99,,,-99.99,,2013-03-16 21:02:00,
2013-03-16 14:10:00,57.0,27.0,-100.00,WSW,255,6.0,12.0,31,-99.99,,,-99.99,,2013-03-16 21:10:00,
2013-03-16 14:12:00,57.0,26.0,-100.00,East,80,9.0,17.0,30,-99.99,,,-99.99,,2013-03-16 21:12:00,
2013-03-16 15:03:00,57.0,27.0,-100.00,WSW,255,6.0,12.0,31,-99.99,,,-99.99,,2013-03-16 22:03:00,
2013-03-16 16:02:00,57.0,29.0,-100.00,WNW,285,12.0,14.0,34,-99.99,,,-99.99,,2013-03-16 23:02:00,
2013-03-16 16:12:00,57.0,29.0,-100.00,WNW,285,12.0,14.0,34,-99.99,,,-99.99,,2013-03-16 23:12:00,
2013-03-16 17:01:00,55.0,33.0,-100.00,NNE,25,8.0,14.0,43,-99.99,,,-99.99,,2013-03-17 00:01:00,
2013-03-16 18:02:00,55.0,30.0,-100.00,East,90,9.0,14.0,38,-99.99,,,-99.99,,2013-03-17 01:02:00,
2013-03-16 18:12:00,55.0,30.0,-100.00,East,90,9.0,14.0,38,-99.99,,,-99.99,,2013-03-17 01:12:00,
2013-03-16 19:02:00,53.0,25.0,-100.00,NE,50,15.0,30.0,33,-99.99,,,-99.99,,2013-03-17 02:02:00,
2013-03-16 20:02:00,50.0,26.0,-100.00,ESE,115,13.0,21.0,38,-99.99,,,-99.99,,2013-03-17 03:02:00,
2013-03-16 20:12:00,50.0,26.0,-100.00,ESE,115,13.0,21.0,38,-99.99,,,-99.99,,2013-03-17 03:12:00,
2013-03-16 21:03:00,48.0,20.0,-100.00,East,100,17.0,32.0,32,-99.99,,,-99.99,,2013-03-17 04:03:00,
2013-03-16 22:02:00,45.0,18.0,-100.00,SSE,150,12.0,24.0,33,-99.99,,,-99.99,,2013-03-17 05:02:00,
2013-03-16 22:12:00,45.0,18.0,-100.00,SSE,150,12.0,24.0,33,-99.99,,,-99.99,,2013-03-17 05:12:00,
2013-03-16 23:02:00,42.0,26.0,-100.00,SSE,155,10.0,14.0,52,-99.99,,,-99.99,,2013-03-17 06:02:00,
2013-03-16 23:10:00,39.0,28.0,-100.00,ESE,120,16.0,27.0,64,-99.99,,,-99.99,,2013-03-17 06:10:00,